NOAA 16 DEB, 41292

Orbit data source: Space-Track

NOAA 16 DEB, 41292 is space debris in SSO originally from a launch on Thu, 21 Sep 2000 UTC launched from the Air Force Western Test Range (AFWTR). Debris objects in space refer to the collection of defunct objects orbiting the Earth. Examples of debris include non-operational satellites, rocket bodies, and fragments generated from explosions, collisions, or faulty payload assembly.

Loading next visibility...
Identifier
41292, 2000-055GU
Orbit
SSO
Country
Flag of USUS
Related business
Manufacturer
Unknown
Mission
Spacecraft
Bus & Motor
Unknown
Mass
Unknown
Launch date (UTC)
2000-09-21 (25 years ago)
Launch vehicle
Unknown
Launch site
Air Force Western Test Range (AFWTR)
Object type
Payload
Rocket body
Debris
Shape & HBR
Unknown shape, 0.1 m
Radar Cross Section
Small (<0.1 m²)

Expand to show TLE details & history
Last TLE update: 16 hours ago

TLE from 16 hours ago
0 NOAA 16 DEB
1 41292U 00055GU  25293.06967275  .00016797  00000-0  39516-2 0  9997
2 41292  98.9749 146.7850 0036031  31.6105 328.7243 14.54025469512878
Epoch: 2025-10-20T01:40Z
TLE epoch observation values (Epoch: 2025-10-20T01:40:19.725Z)
Latitude
-0.00006°
Longitude
92.92555°
Altitude
693.668 km
Speed
7.521 km/s
True Right ascension
09h 47m 08s
True Declination
0° 00' 00"
Sunlit
Object was in daylight at epoch
Visualization orbit readout
Latitude
Unknown
Longitude
Unknown
Altitude
Unknown
Speed
Unknown
Apparent Right ascension
Unknown
Apparent Declination
Unknown
Sunlit
N/A
Visualization observer readout
Local Sidereal Time
12:10:54
Azimuth
Unknown
Elevation
Unknown
Doppler factor
Unknown
Orbital elements
Apogee altitude
735.196 km
Perigee altitude
684.12 km
Semi-major axis
7,087.795 km
Eccentricity
0.0036
Inclination
98.9749°
RAAN
146.785°
Arg. of periapsis
31.6105°
True anomaly
328.50912°
Mean anomaly
328.7243°
Eccentric anomaly
328.61679°
Mean motion
3.63728 °/min
Orbital period
98.98 mins
BSTAR
0.0039516
Loading maneuver chart data...
Computing Atmospheric mass density...
Loading historical data...
Loading historical data...
Loading historical data...
Loading historical data...
Loading historical data...
Loading historical data...
Loading historical data...

Documentation

Showing up to 5 results
|